sat.trackr.live / text

‹ back to catalog

STARLINK-31993

NORAD 59961 · 2024-107S

PAYLOAD ACTIVE UNKNOWN

§ Identity

Operator
Country
US
Launch date
2024-06-05
Launch site
AFETR
Launch vehicle
Mass (kg)
RCS (m²)

Purposes: comms

External: N2YO · Heavens-Above · Gunter

§ Orbital elements

Epoch: 2026-09-21T15:38:03.332544Z

Period
93.85 min
Inclination
53.1588°
Eccentricity
0.0001332
Mean motion
15.34391015 rev/d
Perigee alt
461.8 km
Apogee alt
463.6 km
Semi-major
6,840.9 km
B*
1.5366e-6
RAAN
232.1485°
Arg perigee
80.7011°
Mean anomaly
279.4143°
Rev number
12,978

§ Raw data

STARLINK-319931 59961U 24107S   26264.65142746 -.00000324  00000+0  15366-5 0  99942 59961  53.1588 232.1485 0001332  80.7011 279.4143 15.34391015129782

JSON: /api/v1/satellites/59961 · /tle

For live sub-satellite position, see the globe view (requires WebGL).

§ Visibility from observer

Set your observer location to see the next 7 days of passes ≥ 10°. The values pass through the URL so the page stays shareable.

No JS? Fill the form by hand. The geolocation button needs JavaScript.